Location: Johnson City
(36.3130°N, 82.3540°W)
Time: 05:56:23
(UTC-04:00)

Amateur Radio Satellites - All Passes

Search period start: 27 May 2017 05:26
Search period end: 28 May 2017 05:26
Location: Johnson City, 36.3130°N, 82.3540°W

Satellite Date Start Highest point End Downlink Frequencies (MHz)
Time Altitude Azimuth
O/OREOS (USA 219) 27 May 05:28:23 05:32:22 29° 297° (WNW) 05:36:22 437.305
BEESAT 3 27 May 05:36:02 05:39:47 46° 116° (ESE) 05:43:37 437.485
ITAMSAT 1 27 May 05:38:10 05:43:00 39° 289° (WNW) 05:47:48 435.822/435.867
SRMSAT 27 May 05:47:23 05:48:01 10° 166° (SSE) 05:48:39 437.500
STARS 27 May 05:55:50 06:00:09 75° 76° (ENE) 06:04:31 437.465
AO-7 27 May 06:05:18 06:13:15 50° 294° (WNW) 06:21:11 .
RS-15 27 May 06:21:32 06:30:04 21° 336° (NNW) 06:38:40 29.354- 29.394
AO-85 27 May 06:27:07 06:29:44 16° 310° (NW) 06:32:17 145.980
PCSat 27 May 06:29:00 06:33:30 27° 253° (WSW) 06:37:57 145.827
XW-2D 27 May 06:32:45 06:34:00 11° 92° (E) 06:35:15 145.860 - 145.880
XW-2B 27 May 06:40:01 06:42:01 14° 93° (E) 06:44:02 145.730 - 145.750
NUDT-PHONESAT 27 May 06:49:40 06:51:38 14° 93° (E) 06:53:35 437.300
XW-2F 27 May 06:51:34 06:54:21 19° 95° (E) 06:57:05 145.980 - 146.000
JUGNU 27 May 06:52:48 06:55:45 14° 188° (S) 06:58:43 437.505
XW-2C 27 May 06:52:54 06:55:50 21° 95° (E) 06:58:45 145.795 - 145.815
BEESAT 2 27 May 06:54:19 06:58:14 61° 302° (WNW) 07:02:13 435.950
KAITUO 1B 27 May 06:58:19 07:01:00 18° 94° (E) 07:03:39 145.475/437.950
STRAND 1 27 May 06:59:37 07:02:57 18° 65° (ENE) 07:06:17 437.568
BEESAT 3 27 May 07:15:18 07:17:37 15° 312° (NW) 07:19:57 437.485
LilacSat-2 27 May 07:30:54 07:34:46 71° 101° (E) 07:38:36 437.200
SRMSAT 27 May 07:33:01 07:36:22 15° 176° (S) 07:39:44 437.500
DOVE 4 27 May 07:34:57 07:39:04 58° 285° (WNW) 07:43:18 437.250
CUTE-I 27 May 07:36:41 07:41:58 59° 101° (E) 07:47:14 437.470
SO-50 27 May 07:40:45 07:44:58 38° 55° (NE) 07:49:12 436.795
CUTE 1.7 + AOD 2 27 May 07:43:28 07:44:30 11° 91° (E) 07:45:32 437.475
M-CUBED/EXP-1 PRIME 27 May 07:57:44 08:00:08 15° 64° (ENE) 08:02:26 437.505
XW-2D 27 May 08:04:44 08:08:21 40° 286° (WNW) 08:11:57 145.860 - 145.880
XW-2B 27 May 08:12:49 08:16:18 33° 287° (WNW) 08:19:45 145.730 - 145.750
NUDT-PHONESAT 27 May 08:22:13 08:25:36 32° 287° (WNW) 08:28:58 437.300
XW-2F 27 May 08:25:16 08:28:25 24° 289° (WNW) 08:31:32 145.980 - 146.000
CUBEBUG 2 27 May 08:25:24 08:28:38 19° 94° (E) 08:31:55 437.445
NO-84 27 May 08:26:27 08:30:34 40° 127° (SE) 08:34:38 435.350 FM
XW-2C 27 May 08:26:52 08:29:55 23° 289° (WNW) 08:32:56 145.795 - 145.815
SEEDS 27 May 08:29:26 08:32:54 24° 96° (E) 08:36:19 437.485
KAITUO 1B 27 May 08:31:50 08:34:57 24° 289° (WNW) 08:38:02 145.475/437.950
UWE-3 27 May 08:35:14 08:37:37 14° 92° (E) 08:40:00 435.000/436.395/437.385
STRAND 1 27 May 08:36:47 08:41:42 49° 260° (W) 08:46:39 437.568
RS-15 27 May 08:42:22 08:49:39 17° 13° (NNE) 08:56:48 29.354- 29.394
XW-2A 27 May 08:42:36 08:45:57 50° 100° (E) 08:49:18 145.665 - 145.685
HO-68 27 May 08:57:32 09:04:45 75° 104° (ESE) 09:11:55 435.675
Oscar 11 27 May 09:06:43 09:07:33 10° 91° (E) 09:08:24 .
CUTE 1.7 + AOD 2 27 May 09:16:28 09:20:37 52° 285° (WNW) 09:24:43 437.475
CUTE-I 27 May 09:18:16 09:21:29 16° 296° (WNW) 09:24:41 437.470
SRMSAT 27 May 09:21:39 09:24:45 14° 187° (S) 09:27:52 437.500
SO-50 27 May 09:21:54 09:25:08 19° 250° (WSW) 09:28:22 436.795
AAUSAT CUBESAT 2 27 May 09:26:43 09:30:47 54° 100° (E) 09:34:47 437.432
M-CUBED/EXP-1 PRIME 27 May 09:30:12 09:34:17 41° 255° (WSW) 09:38:06 437.505
AO-73 27 May 09:31:24 09:35:23 29° 96° (E) 09:39:22 145.935
PRISM 27 May 09:32:09 09:34:30 15° 67° (ENE) 09:36:51 437.425
UNISAT 6 27 May 09:37:04 09:39:04 13° 65° (ENE) 09:41:05 437.425
ZACube-1 27 May 09:45:27 09:49:53 48° 99° (E) 09:54:18 437.345
CUBEBUG 2 27 May 10:01:03 10:05:18 38° 287° (WNW) 10:09:38 437.445
NO-84 27 May 10:04:28 10:08:16 28° 323° (NW) 10:11:57 435.350 FM
SEEDS 27 May 10:05:07 10:08:26 23° 290° (WNW) 10:11:44 437.485
UWE-3 27 May 10:09:48 10:14:16 50° 286° (WNW) 10:18:45 435.000/436.395/437.385
TIGRISAT 27 May 10:39:07 10:43:19 63° 75° (ENE) 10:47:36 435.000
Oscar 11 27 May 10:39:44 10:44:00 56° 285° (WNW) 10:48:14 .
FO-29 27 May 10:40:23 10:45:32 70° 74° (ENE) 10:50:47 435.910
HO-68 27 May 10:46:50 10:51:41 20° 301° (WNW) 10:56:33 435.675
RS-15 27 May 10:55:35 11:06:59 42° 46° (NE) 11:17:48 29.354- 29.394
AAUSAT CUBESAT 2 27 May 11:04:43 11:05:42 11° 295° (WNW) 11:06:42 437.432
PRISM 27 May 11:05:33 11:09:25 38° 261° (W) 11:13:18 437.425
EO-88 27 May 11:07:00 11:10:36 52° 100° (E) 11:14:11 145.990 - 145.960
AO-73 27 May 11:07:51 11:11:26 23° 291° (WNW) 11:15:02 145.935
UNISAT 6 27 May 11:11:12 11:15:19 47° 261° (W) 11:19:30 437.425
DELFI C3 27 May 11:14:17 11:18:14 83° 280° (W) 11:22:07 145.870
ZACube-1 27 May 11:23:07 11:25:44 15° 293° (WNW) 11:28:20 437.345
EO-79 27 May 11:32:11 11:34:42 16° 67° (ENE) 11:37:13 145.935-145.965
LO-87 27 May 11:48:27 11:51:03 19° 95° (E) 11:53:38 145.935 - 145.965
AIST 2D 27 May 12:13:36 12:17:05 73° 259° (W) 12:20:37 435.315
NANOSAT C BR1 27 May 12:15:14 12:19:12 45° 73° (ENE) 12:23:12 145.865
POLYITAN 1 27 May 12:20:23 12:24:28 58° 75° (ENE) 12:28:37 437.675
DUCHIFAT 1 27 May 12:25:25 12:29:27 53° 75° (ENE) 12:33:32 145.980
QB50P2 27 May 12:29:00 12:33:12 83° 75° (ENE) 12:37:25 145.880/145.840
FO-29 27 May 12:30:41 12:31:14 10° 270° (W) 12:31:48 435.910
ESTCUBE 1 27 May 12:37:44 12:42:04 46° 99° (E) 12:46:22 437.505/2401.250
BUGSAT 1 27 May 12:41:23 12:44:30 22° 70° (ENE) 12:47:37 437.445
YUBILEINY 27 May 12:55:10 13:03:53 60° 80° (E) 13:12:34 435.215
EO-79 27 May 13:06:15 13:10:07 37° 262° (W) 13:14:02 145.935-145.965
RS-15 27 May 13:08:12 13:19:56 60° 249° (WSW) 13:31:04 29.354- 29.394
SPROUT 27 May 13:18:09 13:21:58 31° 97° (E) 13:25:46 437.525
AO-85 27 May 13:18:56 13:21:46 18° 51° (NE) 13:24:42 145.980
LO-87 27 May 13:21:41 13:24:23 20° 289° (WNW) 13:27:04 145.935 - 145.965
VELOX 1 27 May 13:30:01 13:34:10 41° 99° (E) 13:38:18 145.980
NANOSAT C BR1 27 May 13:53:24 13:55:07 12° 268° (W) 13:56:51 145.865
UKube-1 27 May 13:54:23 13:57:12 17° 94° (E) 13:59:59 .
Gurwin Techsat 1B 27 May 13:55:28 14:00:11 34° 70° (ENE) 14:04:57 435.225
BEESAT 3 27 May 13:56:16 13:58:25 14° 47° (NE) 14:00:35 437.485
O/OREOS (USA 219) 27 May 14:01:27 14:05:25 29° 63° (ENE) 14:09:20 437.305
DX 1 27 May 14:02:58 14:06:51 32° 98° (E) 14:10:43 434.975-435.025
DUCHIFAT 1 27 May 14:04:57 14:05:24 10° 269° (W) 14:05:52 145.980
Oscar 19 27 May 14:10:18 14:15:29 82° 75° (ENE) 14:20:43 437.125/150
ESTCUBE 1 27 May 14:15:54 14:18:27 15° 294° (WNW) 14:20:59 437.505/2401.250
BUGSAT 1 27 May 14:16:33 14:19:44 23° 264° (W) 14:22:56 437.445
50 SAT 27 May 14:28:22 14:31:44 61° 284° (WNW) 14:35:03 437.505
YUBILEINY 27 May 14:53:07 14:59:59 26° 277° (W) 15:06:53 435.215
SPROUT 27 May 14:54:35 14:57:38 19° 292° (WNW) 15:00:41 437.525
AO-85 27 May 14:58:26 15:02:14 38° 245° (WSW) 15:06:17 145.980
NO-84 27 May 15:04:34 15:05:57 12° 25° (NNE) 15:07:18 435.350 FM
VELOX 1 27 May 15:07:38 15:10:14 16° 294° (WNW) 15:12:50 145.980
AO-7 27 May 15:09:18 15:16:41 38° 62° (ENE) 15:24:05 .
BEESAT 2 27 May 15:14:27 15:18:08 32° 54° (NE) 15:21:46 435.950
ITAMSAT 1 27 May 15:14:57 15:19:11 27° 67° (ENE) 15:23:27 435.822/435.867
BEESAT 27 May 15:24:15 15:26:52 15° 93° (E) 15:29:28 436.000
UKube-1 27 May 15:29:22 15:33:17 35° 289° (WNW) 15:37:11 .
BEESAT 3 27 May 15:32:25 15:36:18 50° 245° (WSW) 15:40:07 437.485
Gurwin Techsat 1B 27 May 15:35:46 15:40:08 26° 264° (W) 15:44:31 435.225
DX 1 27 May 15:39:42 15:42:47 19° 292° (WNW) 15:45:51 434.975-435.025
O/OREOS (USA 219) 27 May 15:41:10 15:44:36 22° 259° (W) 15:48:01 437.305
ITUPSAT 1 27 May 16:27:13 16:32:02 70° 102° (ESE) 16:36:49 437.325
MOZHAYETS 4 27 May 16:33:44 16:38:14 47° 99° (E) 16:42:40
NO-84 27 May 16:40:32 16:44:13 71° 45° (NE) 16:47:33 435.350 FM
BEESAT 2 27 May 16:52:48 16:55:38 18° 250° (WSW) 16:58:26 435.950
ITAMSAT 1 27 May 16:53:53 16:58:29 32° 262° (W) 17:03:06 435.822/435.867
BEESAT 27 May 17:00:14 17:04:53 50° 287° (WNW) 17:09:29 436.000
AO-7 27 May 17:01:25 17:09:14 45° 259° (W) 17:17:07 .
KKS-1 27 May 17:20:29 17:23:40 19° 95° (E) 17:26:51 437.445
CUBESAT XI-V 27 May 17:22:49 17:26:43 26° 96° (E) 17:30:35 437.345
STARS 27 May 17:48:49 17:51:34 16° 94° (E) 17:54:19 437.465
ITUPSAT 1 27 May 18:07:35 18:09:13 12° 297° (WNW) 18:10:50 437.325
LilacSat-2 27 May 18:10:33 18:13:37 23° 71° (ENE) 18:16:43 437.200
MOZHAYETS 4 27 May 18:12:12 18:14:57 16° 294° (WNW) 18:17:41
DOVE 4 27 May 18:37:21 18:42:02 82° 260° (W) 18:46:25 437.250
XW-2D 27 May 18:42:46 18:46:30 60° 76° (ENE) 18:50:17 145.860 - 145.880
XW-2B 27 May 18:50:42 18:54:29 74° 77° (ENE) 18:58:19 145.730 - 145.750
CUTE-I 27 May 18:55:52 19:01:09 75° 75° (ENE) 19:06:27 437.470
KKS-1 27 May 18:56:18 19:00:15 33° 289° (WNW) 19:04:13 437.445
NUDT-PHONESAT 27 May 18:58:09 19:01:50 70° 77° (ENE) 19:05:33 437.300
CUBESAT XI-V 27 May 19:00:09 19:03:58 26° 291° (WNW) 19:07:47 437.345
XW-2F 27 May 19:02:30 19:06:16 78° 259° (WSW) 19:10:06 145.980 - 146.000
XW-2C 27 May 19:04:25 19:08:13 70° 260° (W) 19:12:02 145.795 - 145.815
KAITUO 1B 27 May 19:08:11 19:11:56 82° 256° (WSW) 19:15:44 145.475/437.950
XW-2A 27 May 19:13:33 19:14:33 11° 68° (ENE) 19:15:32 145.665 - 145.685
SEEDS 27 May 19:19:49 19:21:51 13° 66° (ENE) 19:23:52 437.485
HO-68 27 May 19:23:16 19:29:53 42° 67° (ENE) 19:36:33 435.675
PCSat 27 May 19:23:54 19:29:10 57° 112° (ESE) 19:34:29 145.827
STARS 27 May 19:23:57 19:28:01 38° 288° (WNW) 19:32:04 437.465
ISS 27 May 19:27:40 19:29:17 13° 128° (SE) 19:30:55 437.550
LilacSat-2 27 May 19:44:58 19:47:49 20° 265° (W) 19:50:42 437.200
CUTE 1.7 + AOD 2 27 May 20:05:49 20:10:04 75° 78° (ENE) 20:14:22 437.475
AAUSAT CUBESAT 2 27 May 20:14:23 20:17:50 25° 71° (ENE) 20:21:18 437.432
Tancredo 1 27 May 20:19:21 20:22:25 86° 319° (NW) 20:25:29 437.200
AO-73 27 May 20:25:23 20:27:59 16° 67° (ENE) 20:30:37 145.935
ZACube-1 27 May 20:39:05 20:42:34 25° 70° (ENE) 20:46:06 437.345
CUTE-I 27 May 20:40:10 20:41:41 11° 269° (W) 20:43:12 437.470
XW-2A 27 May 20:43:55 20:46:56 31° 262° (W) 20:49:59 145.665 - 145.685
STRAND 1 27 May 20:49:34 20:54:43 70° 102° (ESE) 20:59:51 437.568
SEEDS 27 May 20:53:00 20:57:05 46° 261° (W) 21:01:12 437.485
CUBEBUG 2 27 May 20:56:15 21:00:20 60° 259° (W) 21:04:31 437.445
ISS 27 May 21:02:14 21:05:27 50° 322° (NW) 21:08:40 437.550
UWE-3 27 May 21:03:52 21:08:02 86° 256° (WSW) 21:12:20 435.000/436.395/437.385
PCSat 27 May 21:09:01 21:12:55 20° 310° (NW) 21:16:51 145.827
HO-68 27 May 21:11:19 21:17:37 33° 263° (W) 21:24:00 435.675
M-CUBED/EXP-1 PRIME 27 May 21:13:42 21:14:05 10° 98° (E) 21:14:28 437.505
Oscar 11 27 May 21:31:18 21:35:37 77° 76° (ENE) 21:39:59 .
EO-88 27 May 21:43:18 21:45:33 16° 69° (ENE) 21:47:48 145.990 - 145.960
AAUSAT CUBESAT 2 27 May 21:49:57 21:53:13 22° 265° (W) 21:56:30 437.432
SO-50 27 May 21:53:08 21:56:41 22° 111° (ESE) 22:00:13 436.795
FO-29 27 May 21:53:32 21:55:50 12° 91° (E) 21:58:11 435.910
DELFI C3 27 May 21:56:54 22:00:33 36° 73° (ENE) 22:04:13 145.870
Tancredo 1 27 May 21:57:17 21:58:35 12° 335° (NNW) 21:59:52 437.200
AO-73 27 May 21:59:58 22:03:51 37° 262° (W) 22:07:52 145.935
ZACube-1 27 May 22:15:26 22:18:45 22° 265° (W) 22:22:09 437.345
STRAND 1 27 May 22:30:55 22:33:15 13° 297° (WNW) 22:35:35 437.568
TIGRISAT 27 May 22:33:52 22:36:56 17° 94° (E) 22:40:01 435.000
ISS 27 May 22:42:02 22:42:35 10° 340° (NNW) 22:43:07 437.550
M-CUBED/EXP-1 PRIME 27 May 22:45:46 22:48:40 30° 292° (WNW) 22:51:33 437.505
PRISM 27 May 22:49:19 22:52:57 31° 98° (E) 22:56:32 437.425
UNISAT 6 27 May 23:04:54 23:09:17 41° 98° (E) 23:13:42 437.425
EO-88 27 May 23:15:50 23:18:58 27° 263° (W) 23:22:08 145.990 - 145.960
SO-50 27 May 23:32:44 23:36:55 35° 306° (NW) 23:41:06 436.795
DELFI C3 27 May 23:33:20 23:35:26 14° 267° (W) 23:37:32 145.870
ESTCUBE 1 27 May 23:34:40 23:38:39 31° 71° (ENE) 23:42:38 437.505/2401.250
FO-29 27 May 23:34:42 23:41:22 82° 104° (ESE) 23:48:49 435.910
LO-87 27 May 23:54:06 23:57:37 81° 256° (WSW) 00:01:11 145.935 - 145.965
YUBILEINY 28 May 00:03:40 00:05:50 11° 75° (ENE) 00:08:00 435.215
TIGRISAT 28 May 00:09:23 00:13:42 40° 288° (WNW) 00:18:05 435.000
SPROUT 28 May 00:09:44 00:12:33 18° 68° (ENE) 00:15:22 437.525
POLYITAN 1 28 May 00:09:47 00:11:20 12° 92° (E) 00:12:52 437.675
DUCHIFAT 1 28 May 00:14:55 00:15:23 10° 91° (E) 00:15:50 145.980
QB50P2 28 May 00:17:29 00:20:12 16° 94° (E) 00:22:53 145.880/145.840
VELOX 1 28 May 00:24:51 00:28:34 27° 70° (ENE) 00:32:16 145.980
PRISM 28 May 00:25:16 00:27:57 17° 292° (WNW) 00:30:39 437.425
UNISAT 6 28 May 00:42:35 00:45:39 18° 293° (WNW) 00:48:43 437.425
UKube-1 28 May 00:48:07 00:49:18 11° 64° (ENE) 00:50:29 .
EO-79 28 May 00:53:03 00:57:03 39° 99° (E) 01:01:03 145.935-145.965
DX 1 28 May 00:56:23 00:59:38 21° 68° (ENE) 01:02:54 434.975-435.025
50 SAT 28 May 00:58:11 01:01:08 27° 72° (ENE) 01:04:06 437.505
ESTCUBE 1 28 May 01:11:59 01:15:26 21° 265° (W) 01:18:55 437.505/2401.250
AIST 2D 28 May 01:14:19 01:17:40 39° 286° (WNW) 01:20:59 435.315
RS-15 28 May 01:16:37 01:26:22 30° 103° (ESE) 01:36:18 29.354- 29.394
FO-29 28 May 01:21:48 01:25:47 17° 297° (WNW) 01:30:00 435.910
NANOSAT C BR1 28 May 01:37:13 01:41:26 66° 284° (WNW) 01:45:39 145.865
POLYITAN 1 28 May 01:43:12 01:47:20 50° 286° (WNW) 01:51:29 437.675
SPROUT 28 May 01:44:20 01:48:10 33° 262° (W) 01:52:02 437.525
DUCHIFAT 1 28 May 01:47:11 01:51:20 56° 286° (WNW) 01:55:29 145.980
QB50P2 28 May 01:52:09 01:56:03 36° 288° (WNW) 01:59:58 145.880/145.840
YUBILEINY 28 May 01:52:19 02:00:57 75° 94° (E) 02:09:42 435.215
ISS 28 May 01:57:27 01:58:20 11° 21° (NNE) 01:59:15 437.550
BUGSAT 1 28 May 01:59:30 02:03:35 56° 101° (E) 02:07:42 437.445
VELOX 1 28 May 02:01:25 02:04:56 23° 264° (W) 02:08:27 145.980
Gurwin Techsat 1B 28 May 02:15:12 02:18:29 16° 93° (E) 02:21:45 435.225
UKube-1 28 May 02:20:32 02:24:46 60° 258° (WSW) 02:29:02 .
Oscar 19 28 May 02:24:51 02:29:32 35° 98° (E) 02:34:11 437.125/150
BEESAT 28 May 02:28:51 02:31:09 13° 64° (ENE) 02:33:25 436.000
EO-79 28 May 02:29:55 02:32:27 16° 293° (WNW) 02:35:00 145.935-145.965
DX 1 28 May 02:31:49 02:35:37 29° 263° (W) 02:39:26 434.975-435.025
50 SAT 28 May 02:32:18 02:34:01 13° 266° (W) 02:35:43 437.505
Tancredo 1 28 May 02:46:33 02:49:19 30° 35° (NE) 02:52:04 437.200
JUGNU 28 May 03:02:15 03:04:09 12° 168° (SSE) 03:06:04 437.505
AO-7 28 May 03:17:34 03:19:38 11° 89° (E) 03:21:43 .
RS-15 28 May 03:25:41 03:37:44 73° 302° (WNW) 03:50:10 29.354- 29.394
ITUPSAT 1 28 May 03:31:10 03:35:50 60° 74° (ENE) 03:40:34 437.325
ISS 28 May 03:32:11 03:35:25 57° 39° (NE) 03:38:38 437.550
ITAMSAT 1 28 May 03:32:46 03:33:48 11° 91° (E) 03:34:51 435.822/435.867
MOZHAYETS 4 28 May 03:33:02 03:37:07 33° 71° (ENE) 03:41:14
BUGSAT 1 28 May 03:37:21 03:38:26 11° 295° (WNW) 03:39:32 437.445
YUBILEINY 28 May 03:52:25 03:58:36 21° 292° (WNW) 04:04:51 435.215
Gurwin Techsat 1B 28 May 03:53:32 03:58:42 53° 287° (WNW) 04:03:51 435.225
BEESAT 28 May 04:03:41 04:08:22 59° 259° (WSW) 04:13:05 436.000
Oscar 19 28 May 04:04:30 04:08:38 25° 293° (WNW) 04:12:44 437.125/150
O/OREOS (USA 219) 28 May 04:10:29 04:14:59 57° 107° (ESE) 04:19:29 437.305
PCSat 28 May 04:14:42 04:19:18 27° 54° (NE) 04:23:51 145.827
KKS-1 28 May 04:17:06 04:19:19 14° 65° (ENE) 04:21:33 437.445
Tancredo 1 28 May 04:22:39 04:24:54 19° 230° (SW) 04:27:10 437.200
CUBESAT XI-V 28 May 04:23:52 04:27:19 21° 68° (ENE) 04:30:46 437.345
STARS 28 May 04:44:40 04:45:52 11° 64° (ENE) 04:47:05 437.465
JUGNU 28 May 04:48:57 04:52:21 16° 178° (S) 04:55:46 437.505
AO-7 28 May 05:05:11 05:13:34 74° 106° (ESE) 05:21:54 .
ITAMSAT 1 28 May 05:08:32 05:13:45 77° 286° (WNW) 05:18:58 435.822/435.867
AO-85 28 May 05:10:09 05:14:21 64° 301° (WNW) 05:18:20 145.980
ISS 28 May 05:10:24 05:11:32 11° 233° (SW) 05:12:39 437.550
MOZHAYETS 4 28 May 05:10:51 05:14:17 21° 266° (W) 05:17:45
ITUPSAT 1 28 May 05:12:15 05:14:00 12° 268° (W) 05:15:47 437.325
